Time,TemperatureF,DewpointF,PressureIn,WindDirection,WindDirectionDegrees,WindSpeedMPH,WindSpeedGustMPH,Humidity,HourlyPrecipIn,Conditions,Clouds,dailyrainin,SolarRadiationWatts/m^2,SoftwareType,DateUTC
2013-09-26 00:08:00,51.1,49.0,29.90,ESE,115,0.0,0.0,92,0.00,,,-99.99,1.0,HOBO +U30 +Weather +,2013-09-26 04:08:00,
2013-09-26 00:18:00,51.2,49.3,29.90,ESE,115,0.0,0.0,93,0.00,,,-99.99,1.0,HOBO +U30 +Weather +,2013-09-26 04:18:00,
2013-09-26 00:28:00,51.5,49.6,29.90,ESE,115,0.0,0.0,93,0.00,,,-99.99,1.0,HOBO +U30 +Weather +,2013-09-26 04:28:00,
2013-09-26 00:29:00,51.5,49.7,29.90,ESE,115,0.0,0.0,93,0.00,,,-99.99,1.0,HOBO +U30 +Weather +,2013-09-26 04:29:00,
2013-09-26 00:30:00,51.5,49.6,29.90,ESE,115,0.0,0.0,93,0.00,,,-99.99,1.0,HOBO +U30 +Weather +,2013-09-26 04:30:00,
2013-09-26 00:31:00,51.5,49.6,29.90,ESE,115,0.0,0.0,93,0.00,,,-99.99,1.0,HOBO +U30 +Weather +,2013-09-26 04:31:00,
2013-09-26 00:32:00,51.5,49.6,29.90,ESE,115,0.0,0.0,93,0.00,,,-99.99,1.0,HOBO +U30 +Weather +,2013-09-26 04:32:00,
2013-09-26 00:33:00,51.5,49.6,29.90,ESE,115,0.0,0.0,93,0.00,,,-99.99,1.0,HOBO +U30 +Weather +,2013-09-26 04:33:00,
2013-09-26 00:34:00,51.4,49.6,29.90,ESE,115,0.0,0.0,93,0.00,,,-99.99,1.0,HOBO +U30 +Weather +,2013-09-26 04:34:00,
2013-09-26 00:35:00,51.4,49.6,29.90,ESE,115,0.0,0.0,93,0.00,,,-99.99,1.0,HOBO +U30 +Weather +,2013-09-26 04:35:00,
2013-09-26 00:36:00,51.4,49.6,29.90,ESE,115,0.0,0.0,93,0.00,,,-99.99,1.0,HOBO +U30 +Weather +,2013-09-26 04:36:00,
2013-09-26 00:37:00,51.4,49.6,29.90,ESE,115,0.0,0.0,93,0.00,,,-99.99,1.0,HOBO +U30 +Weather +,2013-09-26 04:37:00,
2013-09-26 00:47:00,51.4,49.6,29.90,ESE,115,0.0,0.0,93,0.00,,,-99.99,1.0,HOBO +U30 +Weather +,2013-09-26 04:47:00,
2013-09-26 00:57:00,51.7,50.0,29.89,ESE,115,0.0,0.0,93,0.00,,,-99.99,1.0,HOBO +U30 +Weather +,2013-09-26 04:57:00,
2013-09-26 01:07:00,51.9,50.1,29.90,ESE,115,0.0,0.0,93,0.00,,,-99.99,1.0,HOBO +U30 +Weather +,2013-09-26 05:07:00,
2013-09-26 01:17:00,51.7,49.8,29.89,ESE,115,0.0,0.0,93,0.00,,,-99.99,1.0,HOBO +U30 +Weather +,2013-09-26 05:17:00,
2013-09-26 01:27:00,51.4,49.6,29.90,ESE,115,0.0,0.0,93,0.00,,,-99.99,1.0,HOBO +U30 +Weather +,2013-09-26 05:27:00,
2013-09-26 01:28:00,51.6,49.9,29.90,ESE,115,0.0,0.0,93,0.00,,,-99.99,1.0,HOBO +U30 +Weather +,2013-09-26 05:28:00,
2013-09-26 01:29:00,51.5,49.9,29.90,ESE,115,0.0,0.0,93,0.00,,,-99.99,1.0,HOBO +U30 +Weather +,2013-09-26 05:29:00,
2013-09-26 01:37:00,51.2,49.7,29.90,ESE,115,0.0,0.0,94,0.00,,,-99.99,1.0,HOBO +U30 +Weather +,2013-09-26 05:37:00,
2013-09-26 01:38:00,51.2,49.7,29.90,ESE,115,0.0,0.0,94,0.00,,,-99.99,1.0,HOBO +U30 +Weather +,2013-09-26 05:38:00,
2013-09-26 01:39:00,51.5,49.8,29.90,ESE,115,0.0,0.0,93,0.00,,,-99.99,1.0,HOBO +U30 +Weather +,2013-09-26 05:39:00,
2013-09-26 01:40:00,51.2,49.6,29.90,ESE,115,0.0,0.0,94,0.00,,,-99.99,1.0,HOBO +U30 +Weather +,2013-09-26 05:40:00,
2013-09-26 01:41:00,51.2,49.6,29.90,ESE,115,0.0,0.0,94,0.00,,,-99.99,1.0,HOBO +U30 +Weather +,2013-09-26 05:41:00,
2013-09-26 01:42:00,51.2,49.7,29.90,ESE,115,0.0,0.0,94,0.00,,,-99.99,1.0,HOBO +U30 +Weather +,2013-09-26 05:42:00,
2013-09-26 01:43:00,51.4,49.9,29.90,ESE,115,0.0,0.0,94,0.00,,,-99.99,1.0,HOBO +U30 +Weather +,2013-09-26 05:43:00,
2013-09-26 01:44:00,51.5,50.0,29.90,ESE,115,0.0,0.0,94,0.00,,,-99.99,1.0,HOBO +U30 +Weather +,2013-09-26 05:44:00,
2013-09-26 01:45:00,51.6,50.1,29.90,ESE,115,0.0,0.0,94,0.00,,,-99.99,1.0,HOBO +U30 +Weather +,2013-09-26 05:45:00,
2013-09-26 01:46:00,51.6,50.0,29.89,ESE,115,0.0,0.0,94,0.00,,,-99.99,1.0,HOBO +U30 +Weather +,2013-09-26 05:46:00,
2013-09-26 01:47:00,51.6,50.0,29.89,ESE,115,0.0,0.0,94,0.00,,,-99.99,1.0,HOBO +U30 +Weather +,2013-09-26 05:47:00,
2013-09-26 01:57:00,51.6,50.0,29.90,ESE,115,0.0,0.0,94,0.00,,,-99.99,1.0,HOBO +U30 +Weather +,2013-09-26 05:57:00,
2013-09-26 02:06:00,50.4,49.0,29.89,ESE,115,0.0,0.0,94,0.00,,,-99.99,1.0,HOBO +U30 +Weather +,2013-09-26 06:06:00,
2013-09-26 02:07:00,50.9,49.4,29.90,ESE,115,0.0,0.0,94,0.00,,,-99.99,1.0,HOBO +U30 +Weather +,2013-09-26 06:07:00,
2013-09-26 02:16:00,50.0,48.7,29.89,ESE,115,0.0,0.0,95,0.00,,,-99.99,1.0,HOBO +U30 +Weather +,2013-09-26 06:16:00,
2013-09-26 02:17:00,50.3,49.0,29.89,ESE,115,0.0,0.0,95,0.00,,,-99.99,1.0,HOBO +U30 +Weather +,2013-09-26 06:17:00,
2013-09-26 02:26:00,49.9,48.6,29.90,ESE,115,0.0,0.0,95,0.00,,,-99.99,1.0,HOBO +U30 +Weather +,2013-09-26 06:26:00,
2013-09-26 02:36:00,50.1,49.0,29.90,ESE,115,0.0,0.0,95,0.00,,,-99.99,1.0,HOBO +U30 +Weather +,2013-09-26 06:36:00,
2013-09-26 02:46:00,50.1,49.0,29.90,SE,132,0.0,0.0,95,0.00,,,-99.99,1.0,HOBO +U30 +Weather +,2013-09-26 06:46:00,
2013-09-26 02:56:00,49.5,48.4,29.90,SE,132,0.0,0.0,96,0.00,,,-99.99,1.0,HOBO +U30 +Weather +,2013-09-26 06:56:00,
2013-09-26 03:06:00,49.7,48.7,29.90,SE,132,0.0,0.0,96,0.00,,,-99.99,1.0,HOBO +U30 +Weather +,2013-09-26 07:06:00,
2013-09-26 03:16:00,49.8,48.8,29.90,SE,132,0.0,0.0,96,0.00,,,-99.99,1.0,HOBO +U30 +Weather +,2013-09-26 07:16:00,
2013-09-26 03:26:00,49.9,49.0,29.90,SE,132,0.0,0.0,96,0.00,,,-99.99,1.0,HOBO +U30 +Weather +,2013-09-26 07:26:00,
2013-09-26 03:36:00,50.1,49.2,29.90,SE,132,0.0,0.0,96,0.00,,,-99.99,1.0,HOBO +U30 +Weather +,2013-09-26 07:36:00,
2013-09-26 03:37:00,50.3,49.4,29.91,SE,133,0.0,0.0,96,0.00,,,-99.99,1.0,HOBO +U30 +Weather +,2013-09-26 07:37:00,
2013-09-26 03:38:00,50.3,49.4,29.91,SE,132,0.0,0.0,96,0.00,,,-99.99,1.0,HOBO +U30 +Weather +,2013-09-26 07:38:00,
2013-09-26 03:39:00,50.3,49.4,29.91,SE,132,0.0,0.0,96,0.00,,,-99.99,1.0,HOBO +U30 +Weather +,2013-09-26 07:39:00,
2013-09-26 03:40:00,50.3,49.4,29.91,SE,133,0.0,0.0,96,0.00,,,-99.99,1.0,HOBO +U30 +Weather +,2013-09-26 07:40:00,
2013-09-26 03:41:00,50.3,49.4,29.90,SE,133,0.0,0.0,96,0.00,,,-99.99,1.0,HOBO +U30 +Weather +,2013-09-26 07:41:00,
2013-09-26 03:42:00,50.4,49.5,29.90,SE,132,0.0,0.0,96,0.00,,,-99.99,1.0,HOBO +U30 +Weather +,2013-09-26 07:42:00,
2013-09-26 03:43:00,50.4,49.5,29.91,SE,133,0.0,0.0,96,0.00,,,-99.99,1.0,HOBO +U30 +Weather +,2013-09-26 07:43:00,
2013-09-26 03:44:00,50.4,49.5,29.91,SE,132,0.0,0.0,96,0.00,,,-99.99,1.0,HOBO +U30 +Weather +,2013-09-26 07:44:00,
2013-09-26 03:45:00,50.4,49.5,29.91,SE,133,0.0,0.0,96,0.00,,,-99.99,1.0,HOBO +U30 +Weather +,2013-09-26 07:45:00,
2013-09-26 03:46:00,50.4,49.5,29.91,SE,133,0.0,0.0,96,0.00,,,-99.99,1.0,HOBO +U30 +Weather +,2013-09-26 07:46:00,
2013-09-26 03:56:00,50.5,49.6,29.90,SE,133,0.0,0.0,96,0.00,,,-99.99,1.0,HOBO +U30 +Weather +,2013-09-26 07:56:00,
2013-09-26 03:57:00,50.7,49.8,29.91,SE,132,0.0,0.0,96,0.00,,,-99.99,1.0,HOBO +U30 +Weather +,2013-09-26 07:57:00,
2013-09-26 03:58:00,50.7,49.8,29.91,SE,132,0.0,0.0,96,0.00,,,-99.99,1.0,HOBO +U30 +Weather +,2013-09-26 07:58:00,
2013-09-26 03:59:00,50.8,49.9,29.91,SE,132,0.0,0.0,96,0.00,,,-99.99,1.0,HOBO +U30 +Weather +,2013-09-26 07:59:00,
2013-09-26 04:00:00,50.8,49.9,29.91,SE,132,0.0,0.0,96,0.00,,,-99.99,1.0,HOBO +U30 +Weather +,2013-09-26 08:00:00,
2013-09-26 04:01:00,50.8,49.9,29.91,SE,132,0.0,0.0,96,0.00,,,-99.99,1.0,HOBO +U30 +Weather +,2013-09-26 08:01:00,
2013-09-26 04:02:00,50.8,50.0,29.91,SE,132,0.0,0.0,96,0.00,,,-99.99,1.0,HOBO +U30 +Weather +,2013-09-26 08:02:00,
2013-09-26 04:03:00,50.9,50.0,29.91,SE,133,0.0,0.0,96,0.00,,,-99.99,1.0,HOBO +U30 +Weather +,2013-09-26 08:03:00,
2013-09-26 04:04:00,50.9,50.0,29.91,SE,132,0.0,0.0,96,0.00,,,-99.99,1.0,HOBO +U30 +Weather +,2013-09-26 08:04:00,
2013-09-26 04:05:00,50.9,50.1,29.91,SE,133,0.0,0.0,96,0.00,,,-99.99,1.0,HOBO +U30 +Weather +,2013-09-26 08:05:00,
2013-09-26 04:15:00,50.9,50.1,29.91,SE,132,0.0,0.0,96,0.00,,,-99.99,1.0,HOBO +U30 +Weather +,2013-09-26 08:15:00,
2013-09-26 04:24:00,51.2,50.3,29.91,SE,132,0.0,0.0,96,0.00,,,-99.99,1.0,HOBO +U30 +Weather +,2013-09-26 08:24:00,
2013-09-26 04:34:00,51.5,50.7,29.90,SE,133,0.0,0.0,96,0.00,,,-99.99,1.0,HOBO +U30 +Weather +,2013-09-26 08:34:00,
2013-09-26 04:44:00,52.2,51.3,29.90,SE,132,0.0,0.0,96,0.00,,,-99.99,1.0,HOBO +U30 +Weather +,2013-09-26 08:44:00,
2013-09-26 04:54:00,53.0,51.8,29.91,SE,133,0.0,0.0,95,0.00,,,-99.99,1.0,HOBO +U30 +Weather +,2013-09-26 08:54:00,
2013-09-26 05:04:00,53.4,51.9,29.91,SE,132,0.0,0.0,94,0.00,,,-99.99,1.0,HOBO +U30 +Weather +,2013-09-26 09:04:00,
2013-09-26 05:14:00,53.4,51.7,29.90,SE,132,0.0,0.0,94,0.00,,,-99.99,1.0,HOBO +U30 +Weather +,2013-09-26 09:14:00,
2013-09-26 05:24:00,53.3,51.6,29.91,SE,132,0.0,0.0,94,0.00,,,-99.99,1.0,HOBO +U30 +Weather +,2013-09-26 09:24:00,
2013-09-26 05:25:00,53.4,51.7,29.91,SE,126,0.0,0.0,93,0.00,,,-99.99,1.0,HOBO +U30 +Weather +,2013-09-26 09:25:00,
2013-09-26 05:35:00,53.4,51.7,29.91,SE,126,0.0,0.0,93,0.00,,,-99.99,1.0,HOBO +U30 +Weather +,2013-09-26 09:35:00,
2013-09-26 05:44:00,53.6,51.7,29.91,SE,126,0.0,0.0,93,0.00,,,-99.99,1.0,HOBO +U30 +Weather +,2013-09-26 09:44:00,
2013-09-26 05:54:00,53.8,51.8,29.91,ESE,119,0.0,0.0,93,0.00,,,-99.99,1.0,HOBO +U30 +Weather +,2013-09-26 09:54:00,
2013-09-26 06:04:00,54.1,51.8,29.91,ESE,122,0.0,0.0,91,0.00,,,-99.99,1.0,HOBO +U30 +Weather +,2013-09-26 10:04:00,
2013-09-26 06:14:00,53.9,51.5,29.92,SE,140,0.0,0.0,91,0.00,,,-99.99,1.0,HOBO +U30 +Weather +,2013-09-26 10:14:00,
2013-09-26 06:24:00,53.7,51.3,29.92,SE,140,0.0,0.0,91,0.00,,,-99.99,1.0,HOBO +U30 +Weather +,2013-09-26 10:24:00,
2013-09-26 06:34:00,53.8,51.5,29.91,SE,140,0.0,0.0,91,0.00,,,-99.99,1.0,HOBO +U30 +Weather +,2013-09-26 10:34:00,
2013-09-26 06:35:00,53.9,51.5,29.91,NE,38,0.0,0.0,91,0.00,,,-99.99,2.0,HOBO +U30 +Weather +,2013-09-26 10:35:00,
2013-09-26 06:44:00,54.0,51.3,29.92,East,88,0.0,0.0,90,0.00,,,-99.99,7.0,HOBO +U30 +Weather +,2013-09-26 10:44:00,
2013-09-26 06:45:00,53.9,51.4,29.91,NE,38,0.0,0.0,91,0.00,,,-99.99,2.0,HOBO +U30 +Weather +,2013-09-26 10:45:00,
2013-09-26 06:54:00,54.0,51.3,29.92,East,88,0.0,0.0,90,0.00,,,-99.99,7.0,HOBO +U30 +Weather +,2013-09-26 10:54:00,
2013-09-26 07:04:00,54.8,51.1,29.92,ESE,122,0.0,0.0,87,0.00,,,-99.99,12.0,HOBO +U30 +Weather +,2013-09-26 11:04:00,
2013-09-26 07:14:00,55.0,51.0,29.93,ESE,105,0.0,0.0,86,0.00,,,-99.99,23.0,HOBO +U30 +Weather +,2013-09-26 11:14:00,
2013-09-26 07:24:00,55.3,50.6,29.93,ESE,114,0.0,0.0,84,0.00,,,-99.99,31.0,HOBO +U30 +Weather +,2013-09-26 11:24:00,
2013-09-26 07:25:00,55.5,50.2,29.93,ESE,107,0.0,0.0,82,0.00,,,-99.99,39.0,HOBO +U30 +Weather +,2013-09-26 11:25:00,
2013-09-26 07:26:00,55.7,50.2,29.94,East,81,0.0,0.0,81,0.00,,,-99.99,41.0,HOBO +U30 +Weather +,2013-09-26 11:26:00,
2013-09-26 07:27:00,55.7,50.3,29.93,ESE,102,0.0,0.0,81,0.00,,,-99.99,42.0,HOBO +U30 +Weather +,2013-09-26 11:27:00,
2013-09-26 07:28:00,55.7,50.4,29.94,East,97,0.0,0.0,82,0.00,,,-99.99,42.0,HOBO +U30 +Weather +,2013-09-26 11:28:00,
2013-09-26 07:29:00,55.7,50.3,29.94,ENE,60,0.0,0.0,82,0.00,,,-99.99,41.0,HOBO +U30 +Weather +,2013-09-26 11:29:00,
2013-09-26 07:30:00,55.6,50.4,29.93,ENE,70,0.0,0.0,82,0.00,,,-99.99,42.0,HOBO +U30 +Weather +,2013-09-26 11:30:00,
2013-09-26 07:31:00,55.7,50.3,29.94,East,98,0.0,0.0,82,0.00,,,-99.99,43.0,HOBO +U30 +Weather +,2013-09-26 11:31:00,
2013-09-26 07:32:00,55.7,50.4,29.93,East,91,0.0,0.0,82,0.00,,,-99.99,44.0,HOBO +U30 +Weather +,2013-09-26 11:32:00,
2013-09-26 07:33:00,55.7,50.3,29.93,ENE,69,0.0,0.0,82,0.00,,,-99.99,44.0,HOBO +U30 +Weather +,2013-09-26 11:33:00,
2013-09-26 07:34:00,55.7,50.3,29.94,East,101,0.0,0.0,81,0.00,,,-99.99,46.0,HOBO +U30 +Weather +,2013-09-26 11:34:00,
2013-09-26 07:44:00,55.7,50.2,29.93,ENE,74,0.0,0.0,81,0.00,,,-99.99,47.0,HOBO +U30 +Weather +,2013-09-26 11:44:00,
2013-09-26 07:53:00,56.0,49.9,29.93,ESE,108,0.0,0.0,80,0.00,,,-99.99,58.0,HOBO +U30 +Weather +,2013-09-26 11:53:00,
2013-09-26 08:03:00,56.3,49.9,29.93,ESE,112,0.0,0.0,79,0.00,,,-99.99,72.0,HOBO +U30 +Weather +,2013-09-26 12:03:00,
2013-09-26 08:13:00,56.7,50.3,29.94,ENE,62,0.0,0.0,79,0.00,,,-99.99,97.0,HOBO +U30 +Weather +,2013-09-26 12:13:00,
2013-09-26 08:14:00,57.1,49.8,29.94,NE,51,0.0,0.0,76,0.00,,,-99.99,104.0,HOBO +U30 +Weather +,2013-09-26 12:14:00,
2013-09-26 08:15:00,57.2,49.9,29.94,East,101,0.0,0.0,76,0.00,,,-99.99,107.0,HOBO +U30 +Weather +,2013-09-26 12:15:00,
2013-09-26 08:16:00,57.3,50.1,29.94,SE,126,0.0,0.0,76,0.00,,,-99.99,109.0,HOBO +U30 +Weather +,2013-09-26 12:16:00,
2013-09-26 08:17:00,57.4,50.3,29.95,SE,126,0.0,0.0,77,0.00,,,-99.99,111.0,HOBO +U30 +Weather +,2013-09-26 12:17:00,
2013-09-26 08:18:00,57.5,50.3,29.94,ESE,121,0.0,0.0,76,0.00,,,-99.99,113.0,HOBO +U30 +Weather +,2013-09-26 12:18:00,
2013-09-26 08:19:00,57.5,50.7,29.94,NNE,27,0.0,0.0,77,0.00,,,-99.99,113.0,HOBO +U30 +Weather +,2013-09-26 12:19:00,
2013-09-26 08:20:00,57.5,50.7,29.94,East,94,0.0,0.0,77,0.00,,,-99.99,113.0,HOBO +U30 +Weather +,2013-09-26 12:20:00,
2013-09-26 08:21:00,57.5,51.0,29.94,NE,35,0.0,0.0,78,0.00,,,-99.99,113.0,HOBO +U30 +Weather +,2013-09-26 12:21:00,
2013-09-26 08:22:00,57.5,50.8,29.94,NE,35,0.0,0.0,78,0.00,,,-99.99,113.0,HOBO +U30 +Weather +,2013-09-26 12:22:00,
2013-09-26 08:23:00,57.5,50.9,29.94,NE,45,0.0,0.0,78,0.00,,,-99.99,113.0,HOBO +U30 +Weather +,2013-09-26 12:23:00,
2013-09-26 08:33:00,57.5,50.3,29.94,NE,52,0.0,0.0,77,0.00,,,-99.99,111.0,HOBO +U30 +Weather +,2013-09-26 12:33:00,
2013-09-26 08:42:00,57.6,50.6,29.94,NE,56,0.0,0.0,77,0.00,,,-99.99,101.0,HOBO +U30 +Weather +,2013-09-26 12:42:00,
2013-09-26 08:52:00,57.5,50.3,29.95,ENE,70,0.0,0.0,76,0.00,,,-99.99,111.0,HOBO +U30 +Weather +,2013-09-26 12:52:00,
2013-09-26 09:02:00,57.7,50.3,29.95,ESE,119,0.0,0.0,76,0.00,,,-99.99,119.0,HOBO +U30 +Weather +,2013-09-26 13:02:00,
2013-09-26 09:12:00,57.8,49.6,29.94,ESE,108,0.0,0.0,74,0.00,,,-99.99,117.0,HOBO +U30 +Weather +,2013-09-26 13:12:00,
2013-09-26 09:22:00,57.6,49.4,29.95,East,88,0.0,0.0,74,0.00,,,-99.99,133.0,HOBO +U30 +Weather +,2013-09-26 13:22:00,
2013-09-26 09:32:00,58.2,49.6,29.95,ESE,115,0.0,0.0,73,0.00,,,-99.99,152.0,HOBO +U30 +Weather +,2013-09-26 13:32:00,
2013-09-26 09:33:00,58.6,49.5,29.96,ESE,115,0.0,0.0,71,0.00,,,-99.99,194.0,HOBO +U30 +Weather +,2013-09-26 13:33:00,
2013-09-26 09:43:00,58.5,49.2,29.96,ESE,112,0.0,0.0,71,0.00,,,-99.99,197.0,HOBO +U30 +Weather +,2013-09-26 13:43:00,
2013-09-26 09:53:00,58.9,49.8,29.95,ESE,115,0.0,0.0,71,0.00,,,-99.99,197.0,HOBO +U30 +Weather +,2013-09-26 13:53:00,
2013-09-26 09:54:00,58.5,49.7,29.95,ESE,102,0.0,0.0,72,0.00,,,-99.99,208.0,HOBO +U30 +Weather +,2013-09-26 13:54:00,
2013-09-26 09:55:00,58.6,49.7,29.95,East,100,0.0,0.0,72,0.00,,,-99.99,218.0,HOBO +U30 +Weather +,2013-09-26 13:55:00,
2013-09-26 09:56:00,58.7,49.9,29.96,ESE,114,0.0,0.0,72,0.00,,,-99.99,234.0,HOBO +U30 +Weather +,2013-09-26 13:56:00,
2013-09-26 09:57:00,58.6,49.5,29.95,East,97,0.0,0.0,71,0.00,,,-99.99,247.0,HOBO +U30 +Weather +,2013-09-26 13:57:00,
2013-09-26 09:58:00,58.7,50.0,29.95,East,97,0.0,0.0,72,0.00,,,-99.99,244.0,HOBO +U30 +Weather +,2013-09-26 13:58:00,
2013-09-26 09:59:00,58.7,49.4,29.95,ESE,112,0.0,0.0,71,0.00,,,-99.99,242.0,HOBO +U30 +Weather +,2013-09-26 13:59:00,
2013-09-26 10:00:00,58.9,49.9,29.96,ENE,76,0.0,0.0,72,0.00,,,-99.99,238.0,HOBO +U30 +Weather +,2013-09-26 14:00:00,
2013-09-26 10:01:00,59.0,49.5,29.95,ESE,117,0.0,0.0,70,0.00,,,-99.99,249.0,HOBO +U30 +Weather +,2013-09-26 14:01:00,
2013-09-26 10:02:00,58.9,49.4,29.96,ESE,122,0.0,0.0,70,0.00,,,-99.99,314.0,HOBO +U30 +Weather +,2013-09-26 14:02:00,
2013-09-26 10:12:00,59.5,50.2,29.95,East,97,0.0,0.0,71,0.00,,,-99.99,318.0,HOBO +U30 +Weather +,2013-09-26 14:12:00,
2013-09-26 10:21:00,61.5,51.8,29.96,East,86,0.0,0.0,70,0.00,,,-99.99,369.0,HOBO +U30 +Weather +,2013-09-26 14:21:00,
2013-09-26 10:22:00,61.3,50.2,29.94,ESE,108,0.0,0.0,66,0.00,,,-99.99,274.0,HOBO +U30 +Weather +,2013-09-26 14:22:00,
2013-09-26 10:23:00,60.7,49.7,29.95,ESE,111,0.0,0.0,67,0.00,,,-99.99,501.0,HOBO +U30 +Weather +,2013-09-26 14:23:00,
2013-09-26 10:24:00,60.9,50.2,29.95,East,88,0.0,0.0,67,0.00,,,-99.99,249.0,HOBO +U30 +Weather +,2013-09-26 14:24:00,
2013-09-26 10:25:00,61.0,50.1,29.94,ENE,65,0.0,0.0,67,0.00,,,-99.99,233.0,HOBO +U30 +Weather +,2013-09-26 14:25:00,
2013-09-26 10:26:00,61.0,50.2,29.95,ESE,111,0.0,0.0,67,0.00,,,-99.99,219.0,HOBO +U30 +Weather +,2013-09-26 14:26:00,
2013-09-26 10:27:00,61.4,51.2,29.95,East,97,0.0,0.0,69,0.00,,,-99.99,447.0,HOBO +U30 +Weather +,2013-09-26 14:27:00,
2013-09-26 10:28:00,61.8,50.8,29.94,ESE,122,0.0,0.0,67,0.00,,,-99.99,438.0,HOBO +U30 +Weather +,2013-09-26 14:28:00,
2013-09-26 10:29:00,62.2,51.5,29.95,ENE,59,0.0,0.0,67,0.00,,,-99.99,424.0,HOBO +U30 +Weather +,2013-09-26 14:29:00,
2013-09-26 10:30:00,62.8,51.5,29.95,East,98,0.0,0.0,66,0.00,,,-99.99,433.0,HOBO +U30 +Weather +,2013-09-26 14:30:00,
2013-09-26 10:31:00,62.5,50.6,29.95,ESE,118,0.0,0.0,64,0.00,,,-99.99,204.0,HOBO +U30 +Weather +,2013-09-26 14:31:00,
2013-09-26 10:41:00,62.2,50.9,29.95,SE,125,0.0,0.0,66,0.00,,,-99.99,183.0,HOBO +U30 +Weather +,2013-09-26 14:41:00,
2013-09-26 10:50:00,61.3,50.5,29.95,ESE,117,0.0,0.0,67,0.00,,,-99.99,257.0,HOBO +U30 +Weather +,2013-09-26 14:50:00,
2013-09-26 11:00:00,61.9,51.3,29.95,East,87,0.0,0.0,68,0.00,,,-99.99,306.0,HOBO +U30 +Weather +,2013-09-26 15:00:00,
2013-09-26 11:01:00,61.1,50.0,29.95,East,93,0.0,0.0,66,0.00,,,-99.99,249.0,HOBO +U30 +Weather +,2013-09-26 15:01:00,
2013-09-26 11:11:00,60.9,49.4,29.95,East,97,0.0,0.0,65,0.00,,,-99.99,238.0,HOBO +U30 +Weather +,2013-09-26 15:11:00,
2013-09-26 11:21:00,61.0,49.6,29.95,ESE,121,0.0,0.0,65,0.00,,,-99.99,406.0,HOBO +U30 +Weather +,2013-09-26 15:21:00,
2013-09-26 11:31:00,60.4,49.9,29.96,East,98,0.0,0.0,68,0.00,,,-99.99,251.0,HOBO +U30 +Weather +,2013-09-26 15:31:00,
2013-09-26 11:41:00,59.8,50.6,29.95,ESE,122,0.0,0.0,71,0.00,,,-99.99,194.0,HOBO +U30 +Weather +,2013-09-26 15:41:00,
2013-09-26 11:50:00,59.3,51.0,29.96,ESE,104,0.0,0.0,73,0.00,,,-99.99,203.0,HOBO +U30 +Weather +,2013-09-26 15:50:00,
2013-09-26 11:51:00,60.0,51.1,29.96,ESE,118,0.0,0.0,72,0.00,,,-99.99,627.0,HOBO +U30 +Weather +,2013-09-26 15:51:00,
2013-09-26 12:01:00,61.5,52.1,29.96,ESE,102,0.0,0.0,71,0.00,,,-99.99,358.0,HOBO +U30 +Weather +,2013-09-26 16:01:00,
2013-09-26 12:10:00,59.3,50.5,29.96,ESE,111,0.0,0.0,72,0.00,,,-99.99,127.0,HOBO +U30 +Weather +,2013-09-26 16:10:00,
2013-09-26 12:20:00,59.1,50.5,29.97,ESE,102,0.0,0.0,72,0.00,,,-99.99,273.0,HOBO +U30 +Weather +,2013-09-26 16:20:00,
2013-09-26 12:21:00,59.5,50.9,29.96,ESE,110,0.0,0.0,73,0.00,,,-99.99,213.0,HOBO +U30 +Weather +,2013-09-26 16:21:00,
2013-09-26 12:31:00,59.5,51.3,29.96,ENE,69,0.0,0.0,74,0.00,,,-99.99,202.0,HOBO +U30 +Weather +,2013-09-26 16:31:00,
2013-09-26 12:40:00,61.3,51.2,29.96,ESE,118,0.0,0.0,69,0.00,,,-99.99,234.0,HOBO +U30 +Weather +,2013-09-26 16:40:00,
2013-09-26 12:50:00,60.3,51.5,29.96,ESE,112,0.0,0.0,72,0.00,,,-99.99,157.0,HOBO +U30 +Weather +,2013-09-26 16:50:00,
2013-09-26 13:00:00,62.7,51.3,29.96,ESE,119,0.0,0.0,66,0.00,,,-99.99,576.0,HOBO +U30 +Weather +,2013-09-26 17:00:00,
2013-09-26 13:10:00,61.7,51.4,29.95,ESE,108,0.0,0.0,68,0.00,,,-99.99,583.0,HOBO +U30 +Weather +,2013-09-26 17:10:00,
2013-09-26 13:20:00,62.8,51.7,29.96,East,79,0.0,0.0,67,0.00,,,-99.99,277.0,HOBO +U30 +Weather +,2013-09-26 17:20:00,
2013-09-26 13:30:00,62.2,51.1,29.95,ESE,102,0.0,0.0,66,0.00,,,-99.99,583.0,HOBO +U30 +Weather +,2013-09-26 17:30:00,
2013-09-26 13:40:00,60.9,50.7,29.95,East,94,0.0,0.0,69,0.00,,,-99.99,378.0,HOBO +U30 +Weather +,2013-09-26 17:40:00,
2013-09-26 13:50:00,61.9,50.1,29.95,ENE,66,0.0,0.0,65,0.00,,,-99.99,216.0,HOBO +U30 +Weather +,2013-09-26 17:50:00,
2013-09-26 14:00:00,60.1,50.2,29.95,East,87,0.0,0.0,69,0.00,,,-99.99,192.0,HOBO +U30 +Weather +,2013-09-26 18:00:00,
2013-09-26 14:10:00,62.0,51.8,29.95,East,100,0.0,0.0,69,0.00,,,-99.99,556.0,HOBO +U30 +Weather +,2013-09-26 18:10:00,
2013-09-26 14:20:00,60.2,50.4,29.95,SE,125,0.0,0.0,69,0.00,,,-99.99,204.0,HOBO +U30 +Weather +,2013-09-26 18:20:00,
2013-09-26 14:30:00,60.3,50.7,29.95,ESE,112,0.0,0.0,70,0.00,,,-99.99,643.0,HOBO +U30 +Weather +,2013-09-26 18:30:00,
2013-09-26 14:40:00,61.8,50.4,29.95,ESE,118,0.0,0.0,65,0.00,,,-99.99,534.0,HOBO +U30 +Weather +,2013-09-26 18:40:00,
2013-09-26 14:41:00,60.9,50.4,29.95,SE,129,0.0,0.0,68,0.00,,,-99.99,459.0,HOBO +U30 +Weather +,2013-09-26 18:41:00,
2013-09-26 14:42:00,61.6,51.4,29.95,East,87,0.0,0.0,69,0.00,,,-99.99,424.0,HOBO +U30 +Weather +,2013-09-26 18:42:00,
2013-09-26 14:43:00,62.1,51.2,29.95,ESE,112,0.0,0.0,67,0.00,,,-99.99,514.0,HOBO +U30 +Weather +,2013-09-26 18:43:00,
2013-09-26 14:44:00,62.2,51.0,29.95,ESE,119,0.0,0.0,66,0.00,,,-99.99,523.0,HOBO +U30 +Weather +,2013-09-26 18:44:00,
2013-09-26 14:45:00,62.5,51.1,29.95,SE,133,0.0,0.0,66,0.00,,,-99.99,534.0,HOBO +U30 +Weather +,2013-09-26 18:45:00,
2013-09-26 14:46:00,63.3,52.1,29.95,ENE,76,0.0,0.0,66,0.00,,,-99.99,539.0,HOBO +U30 +Weather +,2013-09-26 18:46:00,
2013-09-26 14:47:00,63.5,51.1,29.95,ESE,104,0.0,0.0,63,0.00,,,-99.99,546.0,HOBO +U30 +Weather +,2013-09-26 18:47:00,
2013-09-26 14:48:00,63.0,50.8,29.95,East,83,0.0,0.0,64,0.00,,,-99.99,528.0,HOBO +U30 +Weather +,2013-09-26 18:48:00,
2013-09-26 14:49:00,62.7,51.3,29.94,ENE,73,0.0,0.0,66,0.00,,,-99.99,504.0,HOBO +U30 +Weather +,2013-09-26 18:49:00,
2013-09-26 14:50:00,63.3,51.8,29.95,ESE,107,0.0,0.0,66,0.00,,,-99.99,496.0,HOBO +U30 +Weather +,2013-09-26 18:50:00,
2013-09-26 15:00:00,63.5,51.5,29.94,ESE,102,0.0,0.0,64,0.00,,,-99.99,509.0,HOBO +U30 +Weather +,2013-09-26 19:00:00,
2013-09-26 15:09:00,63.2,51.7,29.94,ESE,118,0.0,0.0,66,0.00,,,-99.99,428.0,HOBO +U30 +Weather +,2013-09-26 19:09:00,
2013-09-26 15:19:00,62.7,51.8,29.94,SE,138,0.0,0.0,67,0.00,,,-99.99,422.0,HOBO +U30 +Weather +,2013-09-26 19:19:00,
2013-09-26 15:29:00,61.8,51.1,29.94,ENE,73,0.0,0.0,67,0.00,,,-99.99,433.0,HOBO +U30 +Weather +,2013-09-26 19:29:00,
2013-09-26 15:30:00,61.2,50.6,29.94,SE,128,0.0,0.0,68,0.00,,,-99.99,443.0,HOBO +U30 +Weather +,2013-09-26 19:30:00,
2013-09-26 15:40:00,61.4,50.9,29.94,ESE,121,0.0,0.0,68,0.00,,,-99.99,284.0,HOBO +U30 +Weather +,2013-09-26 19:40:00,
2013-09-26 15:49:00,61.7,51.2,29.94,SE,131,0.0,0.0,68,0.00,,,-99.99,423.0,HOBO +U30 +Weather +,2013-09-26 19:49:00,
2013-09-26 15:59:00,61.7,51.0,29.95,SE,125,0.0,0.0,67,0.00,,,-99.99,416.0,HOBO +U30 +Weather +,2013-09-26 19:59:00,
2013-09-26 16:00:00,60.8,50.7,29.95,ESE,114,0.0,0.0,69,0.00,,,-99.99,411.0,HOBO +U30 +Weather +,2013-09-26 20:00:00,
2013-09-26 16:10:00,59.8,50.9,29.95,ESE,122,0.0,0.0,72,0.00,,,-99.99,356.0,HOBO +U30 +Weather +,2013-09-26 20:10:00,
2013-09-26 16:11:00,60.4,50.6,29.95,ESE,108,0.0,0.0,69,0.00,,,-99.99,104.0,HOBO +U30 +Weather +,2013-09-26 20:11:00,
2013-09-26 16:12:00,60.4,51.3,29.95,ESE,121,0.0,0.0,71,0.00,,,-99.99,359.0,HOBO +U30 +Weather +,2013-09-26 20:12:00,
2013-09-26 16:13:00,60.3,51.0,29.96,ESE,122,0.0,0.0,71,0.00,,,-99.99,362.0,HOBO +U30 +Weather +,2013-09-26 20:13:00,
2013-09-26 16:14:00,60.6,51.7,29.95,ESE,104,0.0,0.0,72,0.00,,,-99.99,359.0,HOBO +U30 +Weather +,2013-09-26 20:14:00,
2013-09-26 16:15:00,60.8,51.5,29.96,ESE,114,0.0,0.0,71,0.00,,,-99.99,356.0,HOBO +U30 +Weather +,2013-09-26 20:15:00,
2013-09-26 16:16:00,61.0,51.6,29.96,ESE,102,0.0,0.0,71,0.00,,,-99.99,349.0,HOBO +U30 +Weather +,2013-09-26 20:16:00,
2013-09-26 16:17:00,60.8,51.2,29.94,East,80,0.0,0.0,70,0.00,,,-99.99,344.0,HOBO +U30 +Weather +,2013-09-26 20:17:00,
2013-09-26 16:18:00,60.5,51.0,29.95,ESE,111,0.0,0.0,70,0.00,,,-99.99,342.0,HOBO +U30 +Weather +,2013-09-26 20:18:00,
2013-09-26 16:19:00,60.4,51.1,29.96,ESE,122,0.0,0.0,71,0.00,,,-99.99,341.0,HOBO +U30 +Weather +,2013-09-26 20:19:00,
2013-09-26 16:29:00,60.3,51.2,29.96,ESE,112,0.0,0.0,71,0.00,,,-99.99,339.0,HOBO +U30 +Weather +,2013-09-26 20:29:00,
2013-09-26 16:39:00,59.9,50.8,29.96,ESE,104,0.0,0.0,71,0.00,,,-99.99,319.0,HOBO +U30 +Weather +,2013-09-26 20:39:00,
2013-09-26 16:49:00,59.9,51.1,29.96,ESE,111,0.0,0.0,72,0.00,,,-99.99,302.0,HOBO +U30 +Weather +,2013-09-26 20:49:00,
2013-09-26 16:59:00,59.1,50.7,29.96,ENE,70,0.0,0.0,73,0.00,,,-99.99,288.0,HOBO +U30 +Weather +,2013-09-26 20:59:00,
2013-09-26 17:09:00,58.4,50.7,29.97,East,101,0.0,0.0,75,0.00,,,-99.99,266.0,HOBO +U30 +Weather +,2013-09-26 21:09:00,
2013-09-26 17:19:00,57.8,50.4,29.97,East,97,0.0,0.0,76,0.00,,,-99.99,26.0,HOBO +U30 +Weather +,2013-09-26 21:19:00,
2013-09-26 17:29:00,57.7,50.3,29.97,ENE,77,0.0,0.0,76,0.00,,,-99.99,23.0,HOBO +U30 +Weather +,2013-09-26 21:29:00,
2013-09-26 17:39:00,57.3,50.3,29.97,East,93,0.0,0.0,77,0.00,,,-99.99,21.0,HOBO +U30 +Weather +,2013-09-26 21:39:00,
2013-09-26 17:40:00,56.9,50.2,29.97,East,91,0.0,0.0,78,0.00,,,-99.99,18.0,HOBO +U30 +Weather +,2013-09-26 21:40:00,
2013-09-26 17:49:00,56.9,50.4,29.97,SE,129,0.0,0.0,78,0.00,,,-99.99,16.0,HOBO +U30 +Weather +,2013-09-26 21:49:00,
2013-09-26 17:50:00,56.9,50.2,29.97,East,100,0.0,0.0,78,0.00,,,-99.99,18.0,HOBO +U30 +Weather +,2013-09-26 21:50:00,
2013-09-26 17:59:00,56.8,50.3,29.98,ESE,108,0.0,0.0,78,0.00,,,-99.99,14.0,HOBO +U30 +Weather +,2013-09-26 21:59:00,
2013-09-26 18:09:00,56.3,50.5,29.98,East,94,0.0,0.0,80,0.00,,,-99.99,12.0,HOBO +U30 +Weather +,2013-09-26 22:09:00,
2013-09-26 18:19:00,55.6,50.3,29.98,SE,133,0.0,0.0,82,0.00,,,-99.99,9.0,HOBO +U30 +Weather +,2013-09-26 22:19:00,
2013-09-26 18:29:00,54.5,50.1,29.98,ESE,122,0.0,0.0,84,0.00,,,-99.99,7.0,HOBO +U30 +Weather +,2013-09-26 22:29:00,
2013-09-26 18:30:00,53.0,49.5,29.98,ESE,122,0.0,0.0,87,0.00,,,-99.99,4.0,HOBO +U30 +Weather +,2013-09-26 22:30:00,
2013-09-26 18:31:00,53.0,49.6,29.98,ESE,122,0.0,0.0,88,0.00,,,-99.99,3.0,HOBO +U30 +Weather +,2013-09-26 22:31:00,
2013-09-26 18:32:00,53.0,49.6,29.98,ESE,122,0.0,0.0,88,0.00,,,-99.99,3.0,HOBO +U30 +Weather +,2013-09-26 22:32:00,
2013-09-26 18:33:00,52.8,49.4,29.98,ESE,122,0.0,0.0,88,0.00,,,-99.99,3.0,HOBO +U30 +Weather +,2013-09-26 22:33:00,
2013-09-26 18:34:00,52.8,49.5,29.98,ESE,122,0.0,0.0,88,0.00,,,-99.99,3.0,HOBO +U30 +Weather +,2013-09-26 22:34:00,
2013-09-26 18:35:00,52.6,49.4,29.98,ESE,122,0.0,0.0,88,0.00,,,-99.99,3.0,HOBO +U30 +Weather +,2013-09-26 22:35:00,
2013-09-26 18:36:00,52.5,49.3,29.98,ESE,122,0.0,0.0,88,0.00,,,-99.99,2.0,HOBO +U30 +Weather +,2013-09-26 22:36:00,
2013-09-26 18:37:00,52.4,49.2,29.98,ESE,122,0.0,0.0,88,0.00,,,-99.99,2.0,HOBO +U30 +Weather +,2013-09-26 22:37:00,
2013-09-26 18:38:00,52.2,49.2,29.98,ESE,122,0.0,0.0,89,0.00,,,-99.99,2.0,HOBO +U30 +Weather +,2013-09-26 22:38:00,
2013-09-26 18:48:00,52.2,49.1,29.98,ESE,122,0.0,0.0,89,0.00,,,-99.99,2.0,HOBO +U30 +Weather +,2013-09-26 22:48:00,
2013-09-26 18:58:00,51.5,48.9,29.99,ESE,122,0.0,0.0,91,0.00,,,-99.99,1.0,HOBO +U30 +Weather +,2013-09-26 22:58:00,
2013-09-26 19:08:00,50.6,48.4,29.99,ESE,122,0.0,0.0,92,0.00,,,-99.99,1.0,HOBO +U30 +Weather +,2013-09-26 23:08:00,
2013-09-26 19:09:00,49.9,47.9,29.99,ESE,122,0.0,0.0,93,0.00,,,-99.99,1.0,HOBO +U30 +Weather +,2013-09-26 23:09:00,
2013-09-26 19:18:00,50.0,48.1,30.00,ESE,122,0.0,0.0,93,0.00,,,-99.99,1.0,HOBO +U30 +Weather +,2013-09-26 23:18:00,
2013-09-26 19:19:00,49.9,48.0,29.99,ESE,122,0.0,0.0,93,0.00,,,-99.99,1.0,HOBO +U30 +Weather +,2013-09-26 23:19:00,
2013-09-26 19:28:00,50.0,48.2,30.00,ESE,122,0.0,0.0,93,0.00,,,-99.99,1.0,HOBO +U30 +Weather +,2013-09-26 23:28:00,
2013-09-26 19:38:00,49.4,47.6,29.99,ESE,122,0.0,0.0,93,0.00,,,-99.99,1.0,HOBO +U30 +Weather +,2013-09-26 23:38:00,
2013-09-26 19:48:00,49.2,47.5,29.99,ESE,122,0.0,0.0,93,0.00,,,-99.99,1.0,HOBO +U30 +Weather +,2013-09-26 23:48:00,
2013-09-26 19:58:00,48.4,46.7,29.99,ESE,122,0.0,0.0,93,0.00,,,-99.99,1.0,HOBO +U30 +Weather +,2013-09-26 23:58:00,
2013-09-26 19:59:00,48.1,46.6,30.00,ESE,122,0.0,0.0,94,0.00,,,-99.99,1.0,HOBO +U30 +Weather +,2013-09-26 23:59:00,
2013-09-26 20:00:00,48.2,46.7,30.00,ESE,122,0.0,0.0,94,0.00,,,-99.99,1.0,HOBO +U30 +Weather +,2013-09-27 00:00:00,
2013-09-26 20:08:00,47.6,46.2,30.01,ESE,122,0.0,0.0,94,0.00,,,-99.99,1.0,HOBO +U30 +Weather +,2013-09-27 00:08:00,
2013-09-26 20:10:00,48.2,46.7,30.00,ESE,122,0.0,0.0,94,0.00,,,-99.99,1.0,HOBO +U30 +Weather +,2013-09-27 00:10:00,
2013-09-26 20:18:00,47.6,46.2,30.01,ESE,122,0.0,0.0,94,0.00,,,-99.99,1.0,HOBO +U30 +Weather +,2013-09-27 00:18:00,
2013-09-26 20:28:00,48.3,47.0,30.01,ESE,122,0.0,0.0,95,0.00,,,-99.99,1.0,HOBO +U30 +Weather +,2013-09-27 00:28:00,
2013-09-26 20:38:00,48.6,47.2,30.01,ESE,122,0.0,0.0,94,0.00,,,-99.99,1.0,HOBO +U30 +Weather +,2013-09-27 00:38:00,
2013-09-26 20:48:00,49.4,48.0,30.01,ESE,122,0.0,0.0,94,0.00,,,-99.99,1.0,HOBO +U30 +Weather +,2013-09-27 00:48:00,
2013-09-26 20:58:00,50.3,48.7,30.01,ESE,122,0.0,0.0,94,0.00,,,-99.99,1.0,HOBO +U30 +Weather +,2013-09-27 00:58:00,
2013-09-26 20:59:00,50.7,48.9,30.01,ESE,122,0.0,0.0,93,0.00,,,-99.99,1.0,HOBO +U30 +Weather +,2013-09-27 00:59:00,
2013-09-26 21:00:00,50.7,48.8,30.01,ESE,122,0.0,0.0,93,0.00,,,-99.99,1.0,HOBO +U30 +Weather +,2013-09-27 01:00:00,
2013-09-26 21:01:00,50.7,48.8,30.01,ESE,122,0.0,0.0,93,0.00,,,-99.99,1.0,HOBO +U30 +Weather +,2013-09-27 01:01:00,
2013-09-26 21:02:00,50.7,48.8,30.01,ESE,122,0.0,0.0,93,0.00,,,-99.99,1.0,HOBO +U30 +Weather +,2013-09-27 01:02:00,
2013-09-26 21:03:00,50.6,48.7,30.01,ESE,122,0.0,0.0,93,0.00,,,-99.99,1.0,HOBO +U30 +Weather +,2013-09-27 01:03:00,
2013-09-26 21:04:00,50.6,48.7,30.01,ESE,122,0.0,0.0,93,0.00,,,-99.99,1.0,HOBO +U30 +Weather +,2013-09-27 01:04:00,
2013-09-26 21:05:00,50.6,48.7,30.01,ESE,122,0.0,0.0,93,0.00,,,-99.99,1.0,HOBO +U30 +Weather +,2013-09-27 01:05:00,
2013-09-26 21:06:00,50.6,48.7,30.01,ESE,122,0.0,0.0,93,0.00,,,-99.99,1.0,HOBO +U30 +Weather +,2013-09-27 01:06:00,
2013-09-26 21:07:00,50.6,48.7,30.01,ESE,122,0.0,0.0,93,0.00,,,-99.99,1.0,HOBO +U30 +Weather +,2013-09-27 01:07:00,
2013-09-26 21:08:00,50.7,48.8,30.01,ESE,122,0.0,0.0,93,0.00,,,-99.99,1.0,HOBO +U30 +Weather +,2013-09-27 01:08:00,
2013-09-26 21:18:00,50.7,48.8,30.01,ESE,122,0.0,0.0,93,0.00,,,-99.99,1.0,HOBO +U30 +Weather +,2013-09-27 01:18:00,
2013-09-26 21:27:00,51.2,49.4,30.01,ESE,122,0.0,0.0,93,0.00,,,-99.99,1.0,HOBO +U30 +Weather +,2013-09-27 01:27:00,
2013-09-26 21:28:00,51.2,49.3,30.02,ESE,122,0.0,0.0,93,0.00,,,-99.99,1.0,HOBO +U30 +Weather +,2013-09-27 01:28:00,
2013-09-26 21:37:00,51.2,49.4,30.02,ESE,122,0.0,0.0,93,0.00,,,-99.99,1.0,HOBO +U30 +Weather +,2013-09-27 01:37:00,
2013-09-26 21:38:00,51.2,49.3,30.02,ESE,122,0.0,0.0,93,0.00,,,-99.99,1.0,HOBO +U30 +Weather +,2013-09-27 01:38:00,
2013-09-26 21:47:00,51.2,49.4,30.02,ESE,122,0.0,0.0,93,0.00,,,-99.99,1.0,HOBO +U30 +Weather +,2013-09-27 01:47:00,
2013-09-26 21:57:00,51.0,49.3,30.02,ESE,122,0.0,0.0,93,0.00,,,-99.99,1.0,HOBO +U30 +Weather +,2013-09-27 01:57:00,
2013-09-26 22:07:00,51.2,49.6,30.02,ESE,122,0.0,0.0,94,0.00,,,-99.99,1.0,HOBO +U30 +Weather +,2013-09-27 02:07:00,
2013-09-26 22:08:00,51.5,49.9,30.02,ESE,122,0.0,0.0,94,0.00,,,-99.99,1.0,HOBO +U30 +Weather +,2013-09-27 02:08:00,
2013-09-26 22:09:00,51.6,50.1,30.02,ESE,122,0.0,0.0,94,0.00,,,-99.99,1.0,HOBO +U30 +Weather +,2013-09-27 02:09:00,
2013-09-26 22:10:00,51.6,50.1,30.02,ESE,122,0.0,0.0,94,0.00,,,-99.99,1.0,HOBO +U30 +Weather +,2013-09-27 02:10:00,
2013-09-26 22:11:00,51.6,50.0,30.02,ESE,122,0.0,0.0,94,0.00,,,-99.99,1.0,HOBO +U30 +Weather +,2013-09-27 02:11:00,
2013-09-26 22:12:00,51.6,50.0,30.03,ESE,122,0.0,0.0,94,0.00,,,-99.99,1.0,HOBO +U30 +Weather +,2013-09-27 02:12:00,
2013-09-26 22:13:00,51.6,50.0,30.02,ESE,122,0.0,0.0,94,0.00,,,-99.99,1.0,HOBO +U30 +Weather +,2013-09-27 02:13:00,
2013-09-26 22:14:00,51.7,50.1,30.03,ESE,122,0.0,0.0,94,0.00,,,-99.99,1.0,HOBO +U30 +Weather +,2013-09-27 02:14:00,
2013-09-26 22:15:00,51.9,50.2,30.03,ESE,122,0.0,0.0,94,0.00,,,-99.99,1.0,HOBO +U30 +Weather +,2013-09-27 02:15:00,
2013-09-26 22:16:00,51.9,50.2,30.03,ESE,122,0.0,0.0,94,0.00,,,-99.99,1.0,HOBO +U30 +Weather +,2013-09-27 02:16:00,
2013-09-26 22:17:00,51.9,50.3,30.02,ESE,122,0.0,0.0,94,0.00,,,-99.99,1.0,HOBO +U30 +Weather +,2013-09-27 02:17:00,
2013-09-26 22:18:00,51.9,50.4,30.03,ESE,122,0.0,0.0,94,0.00,,,-99.99,1.0,HOBO +U30 +Weather +,2013-09-27 02:18:00,
2013-09-26 22:19:00,52.0,50.4,30.02,ESE,122,0.0,0.0,94,0.00,,,-99.99,1.0,HOBO +U30 +Weather +,2013-09-27 02:19:00,
2013-09-26 22:20:00,51.9,50.3,30.02,ESE,122,0.0,0.0,93,0.00,,,-99.99,1.0,HOBO +U30 +Weather +,2013-09-27 02:20:00,
2013-09-26 22:21:00,51.8,50.1,30.03,ESE,122,0.0,0.0,93,0.00,,,-99.99,1.0,HOBO +U30 +Weather +,2013-09-27 02:21:00,
2013-09-26 22:22:00,51.6,49.9,30.03,ESE,122,0.0,0.0,93,0.00,,,-99.99,1.0,HOBO +U30 +Weather +,2013-09-27 02:22:00,
2013-09-26 22:23:00,51.5,49.7,30.02,ESE,122,0.0,0.0,93,0.00,,,-99.99,1.0,HOBO +U30 +Weather +,2013-09-27 02:23:00,
2013-09-26 22:24:00,51.3,49.6,30.03,ESE,122,0.0,0.0,93,0.00,,,-99.99,1.0,HOBO +U30 +Weather +,2013-09-27 02:24:00,
2013-09-26 22:25:00,51.1,49.4,30.03,ESE,122,0.0,0.0,93,0.00,,,-99.99,1.0,HOBO +U30 +Weather +,2013-09-27 02:25:00,
2013-09-26 22:26:00,50.9,49.3,30.02,ESE,122,0.0,0.0,93,0.00,,,-99.99,1.0,HOBO +U30 +Weather +,2013-09-27 02:26:00,
2013-09-26 22:27:00,50.8,49.2,30.03,ESE,122,0.0,0.0,94,0.00,,,-99.99,1.0,HOBO +U30 +Weather +,2013-09-27 02:27:00,
2013-09-26 22:28:00,50.6,49.0,30.03,ESE,122,0.0,0.0,94,0.00,,,-99.99,1.0,HOBO +U30 +Weather +,2013-09-27 02:28:00,
2013-09-26 22:29:00,50.5,48.9,30.03,ESE,122,0.0,0.0,94,0.00,,,-99.99,1.0,HOBO +U30 +Weather +,2013-09-27 02:29:00,
2013-09-26 22:30:00,50.4,48.8,30.02,ESE,122,0.0,0.0,94,0.00,,,-99.99,1.0,HOBO +U30 +Weather +,2013-09-27 02:30:00,
2013-09-26 22:31:00,50.3,48.7,30.03,ESE,122,0.0,0.0,94,0.00,,,-99.99,1.0,HOBO +U30 +Weather +,2013-09-27 02:31:00,
2013-09-26 22:32:00,50.2,48.7,30.02,ESE,122,0.0,0.0,94,0.00,,,-99.99,1.0,HOBO +U30 +Weather +,2013-09-27 02:32:00,
2013-09-26 22:33:00,50.1,48.6,30.02,ESE,122,0.0,0.0,94,0.00,,,-99.99,1.0,HOBO +U30 +Weather +,2013-09-27 02:33:00,
2013-09-26 22:34:00,49.9,48.4,30.03,ESE,122,0.0,0.0,94,0.00,,,-99.99,1.0,HOBO +U30 +Weather +,2013-09-27 02:34:00,
2013-09-26 22:35:00,49.7,48.3,30.03,ESE,122,0.0,0.0,94,0.00,,,-99.99,1.0,HOBO +U30 +Weather +,2013-09-27 02:35:00,
2013-09-26 22:36:00,49.6,48.2,30.02,ESE,122,0.0,0.0,94,0.00,,,-99.99,1.0,HOBO +U30 +Weather +,2013-09-27 02:36:00,
2013-09-26 22:37:00,49.6,48.2,30.02,ESE,122,0.0,0.0,94,0.00,,,-99.99,1.0,HOBO +U30 +Weather +,2013-09-27 02:37:00,
2013-09-26 22:38:00,49.5,48.2,30.02,ESE,122,0.0,0.0,95,0.00,,,-99.99,1.0,HOBO +U30 +Weather +,2013-09-27 02:38:00,
2013-09-26 22:39:00,49.5,48.2,30.03,ESE,122,0.0,0.0,95,0.00,,,-99.99,1.0,HOBO +U30 +Weather +,2013-09-27 02:39:00,
2013-09-26 22:40:00,49.5,48.2,30.02,ESE,122,0.0,0.0,95,0.00,,,-99.99,1.0,HOBO +U30 +Weather +,2013-09-27 02:40:00,
2013-09-26 22:41:00,49.5,48.2,30.02,ESE,122,0.0,0.0,95,0.00,,,-99.99,1.0,HOBO +U30 +Weather +,2013-09-27 02:41:00,
2013-09-26 22:42:00,49.6,48.3,30.02,ESE,122,0.0,0.0,95,0.00,,,-99.99,1.0,HOBO +U30 +Weather +,2013-09-27 02:42:00,
2013-09-26 22:43:00,49.6,48.3,30.03,ESE,122,0.0,0.0,95,0.00,,,-99.99,1.0,HOBO +U30 +Weather +,2013-09-27 02:43:00,
2013-09-26 22:44:00,49.7,48.5,30.03,ESE,122,0.0,0.0,95,0.00,,,-99.99,1.0,HOBO +U30 +Weather +,2013-09-27 02:44:00,
2013-09-26 22:45:00,49.9,48.7,30.01,ESE,122,0.0,0.0,95,0.00,,,-99.99,1.0,HOBO +U30 +Weather +,2013-09-27 02:45:00,
2013-09-26 22:46:00,50.0,48.8,30.03,ESE,122,0.0,0.0,95,0.00,,,-99.99,1.0,HOBO +U30 +Weather +,2013-09-27 02:46:00,
2013-09-26 22:47:00,50.0,48.8,30.02,ESE,122,0.0,0.0,95,0.00,,,-99.99,1.0,HOBO +U30 +Weather +,2013-09-27 02:47:00,
2013-09-26 22:48:00,50.0,48.8,30.02,ESE,122,0.0,0.0,95,0.00,,,-99.99,1.0,HOBO +U30 +Weather +,2013-09-27 02:48:00,
2013-09-26 22:49:00,50.0,48.8,30.02,ESE,122,0.0,0.0,95,0.00,,,-99.99,1.0,HOBO +U30 +Weather +,2013-09-27 02:49:00,
2013-09-26 22:50:00,50.1,48.9,30.02,ESE,122,0.0,0.0,95,0.00,,,-99.99,1.0,HOBO +U30 +Weather +,2013-09-27 02:50:00,
2013-09-26 22:51:00,50.1,49.0,30.02,ESE,122,0.0,0.0,95,0.00,,,-99.99,1.0,HOBO +U30 +Weather +,2013-09-27 02:51:00,
2013-09-26 22:52:00,50.1,49.0,30.02,ESE,122,0.0,0.0,95,0.00,,,-99.99,1.0,HOBO +U30 +Weather +,2013-09-27 02:52:00,
2013-09-26 22:53:00,50.1,49.0,30.02,ESE,122,0.0,0.0,95,0.00,,,-99.99,1.0,HOBO +U30 +Weather +,2013-09-27 02:53:00,
2013-09-26 22:54:00,50.1,49.0,30.02,ESE,122,0.0,0.0,95,0.00,,,-99.99,1.0,HOBO +U30 +Weather +,2013-09-27 02:54:00,
2013-09-26 22:55:00,50.1,49.0,30.02,ESE,122,0.0,0.0,95,0.00,,,-99.99,1.0,HOBO +U30 +Weather +,2013-09-27 02:55:00,
2013-09-26 22:56:00,50.1,49.0,30.02,ESE,122,0.0,0.0,95,0.00,,,-99.99,1.0,HOBO +U30 +Weather +,2013-09-27 02:56:00,
2013-09-26 22:57:00,50.1,49.0,30.02,ESE,122,0.0,0.0,95,0.00,,,-99.99,1.0,HOBO +U30 +Weather +,2013-09-27 02:57:00,
2013-09-26 22:58:00,50.1,49.0,30.02,ESE,122,0.0,0.0,95,0.00,,,-99.99,1.0,HOBO +U30 +Weather +,2013-09-27 02:58:00,
2013-09-26 22:59:00,50.1,49.0,30.02,ESE,122,0.0,0.0,95,0.00,,,-99.99,1.0,HOBO +U30 +Weather +,2013-09-27 02:59:00,
2013-09-26 23:00:00,50.2,49.0,30.02,ESE,122,0.0,0.0,95,0.00,,,-99.99,1.0,HOBO +U30 +Weather +,2013-09-27 03:00:00,
2013-09-26 23:01:00,50.2,49.1,30.02,ESE,122,0.0,0.0,95,0.00,,,-99.99,1.0,HOBO +U30 +Weather +,2013-09-27 03:01:00,
2013-09-26 23:02:00,50.3,49.2,30.02,ESE,122,0.0,0.0,95,0.00,,,-99.99,1.0,HOBO +U30 +Weather +,2013-09-27 03:02:00,
2013-09-26 23:03:00,50.3,49.2,30.02,ESE,122,0.0,0.0,95,0.00,,,-99.99,1.0,HOBO +U30 +Weather +,2013-09-27 03:03:00,
2013-09-26 23:04:00,50.3,49.2,30.02,ESE,122,0.0,0.0,95,0.00,,,-99.99,1.0,HOBO +U30 +Weather +,2013-09-27 03:04:00,
2013-09-26 23:05:00,50.4,49.3,30.02,ESE,122,0.0,0.0,95,0.00,,,-99.99,1.0,HOBO +U30 +Weather +,2013-09-27 03:05:00,
2013-09-26 23:06:00,50.4,49.3,30.02,ESE,122,0.0,0.0,95,0.00,,,-99.99,1.0,HOBO +U30 +Weather +,2013-09-27 03:06:00,
2013-09-26 23:07:00,50.5,49.4,30.03,ESE,122,0.0,0.0,95,0.00,,,-99.99,1.0,HOBO +U30 +Weather +,2013-09-27 03:07:00,
2013-09-26 23:08:00,50.5,49.4,30.03,ESE,122,0.0,0.0,95,0.00,,,-99.99,1.0,HOBO +U30 +Weather +,2013-09-27 03:08:00,
2013-09-26 23:09:00,50.5,49.4,30.02,ESE,122,0.0,0.0,95,0.00,,,-99.99,1.0,HOBO +U30 +Weather +,2013-09-27 03:09:00,
2013-09-26 23:10:00,50.6,49.5,30.03,ESE,122,0.0,0.0,95,0.00,,,-99.99,1.0,HOBO +U30 +Weather +,2013-09-27 03:10:00,
2013-09-26 23:11:00,50.6,49.5,30.02,ESE,122,0.0,0.0,96,0.00,,,-99.99,1.0,HOBO +U30 +Weather +,2013-09-27 03:11:00,
2013-09-26 23:12:00,50.6,49.5,30.03,ESE,122,0.0,0.0,96,0.00,,,-99.99,1.0,HOBO +U30 +Weather +,2013-09-27 03:12:00,
2013-09-26 23:13:00,50.6,49.5,30.02,ESE,122,0.0,0.0,96,0.00,,,-99.99,1.0,HOBO +U30 +Weather +,2013-09-27 03:13:00,
2013-09-26 23:14:00,50.7,49.6,30.02,ESE,122,0.0,0.0,96,0.00,,,-99.99,1.0,HOBO +U30 +Weather +,2013-09-27 03:14:00,
2013-09-26 23:15:00,50.8,49.7,30.02,ESE,122,0.0,0.0,96,0.00,,,-99.99,1.0,HOBO +U30 +Weather +,2013-09-27 03:15:00,
2013-09-26 23:16:00,50.8,49.8,30.02,ESE,122,0.0,0.0,96,0.00,,,-99.99,1.0,HOBO +U30 +Weather +,2013-09-27 03:16:00,
2013-09-26 23:17:00,50.8,49.8,30.02,ESE,122,0.0,0.0,96,0.00,,,-99.99,1.0,HOBO +U30 +Weather +,2013-09-27 03:17:00,
2013-09-26 23:26:00,51.0,49.9,30.03,ESE,122,0.0,0.0,95,0.00,,,-99.99,1.0,HOBO +U30 +Weather +,2013-09-27 03:26:00,
2013-09-26 23:35:00,51.3,50.2,30.02,ESE,122,0.0,0.0,96,0.00,,,-99.99,1.0,HOBO +U30 +Weather +,2013-09-27 03:35:00,
2013-09-26 23:45:00,51.7,50.5,30.03,ESE,122,0.0,0.0,95,0.00,,,-99.99,1.0,HOBO +U30 +Weather +,2013-09-27 03:45:00,
2013-09-26 23:55:00,51.9,50.5,30.03,SE,124,0.0,0.0,94,0.00,,,-99.99,1.0,HOBO +U30 +Weather +,2013-09-27 03:55:00,